Weather History for KJHW - November, 2011

Change the Weather History Date:

Thursday, November 10, 2011

  Actual Average Record
Temperature  
Mean Temperature 40 °F -  
Max Temperature 48 °F 51 °F 69 °F (1975)
Min Temperature 33 °F 31 °F 10 °F (1991)
Degree Days  
Heating Degree Days 24    
Moisture  
Dew Point 30 °F    
Average Humidity 71    
Maximum Humidity 87    
Minimum Humidity 56    
Precipitation  
Precipitation 0.00 in - - ()
Sea Level Pressure  
Sea Level Pressure 29.86 in    
Wind  
Wind Speed 12 mph (SW)    
Max Wind Speed 22 mph    
Max Gust Speed 30 mph    
Visibility 10 miles    
Events      
Averages and records for this station are not official NWS values.
T = Trace of Precipitation, MM = Missing Value Source: NWS Daily Summary

Daily Weather History Graph

Daily Weather History Graph

Search for Another Location

Airport or City:

Trip Planner

Search our weather history database for the weather conditions in past years. The results will help you decide how hot, cold, wet, or windy it might be!

Date:

Astronomy

Nov. 10, 2011 Rise Set
Actual Time 7:00 AM EST 5:00 PM EST
Civil Twilight 6:31 AM EST 5:30 PM EST
Nautical Twilight 5:57 AM EST 6:03 PM EST
Astronomical Twilight 5:24 AM EST 6:36 PM EST
Moon 4:46 PM EST (11/10) 6:52 AM EST (11/10)
Length of Visible Light 10h 59m
Length of Day
9h 59m
Full, 100% of the Moon is Illuminated
Nov 10
Full
Nov 10
Full
Nov 18
Last Quarter
Nov 25
New
Dec 2
First Quarter

Hourly Weather History & Observations

Time (EST) Temp. Windchill Dew Point Humidity Pressure Visibility Wind Dir Wind Speed Gust Speed Precip Events Conditions
12:15 AM 48.2 °F - 42.8 °F 82% 29.82 in 10.0 mi WNW 12.7 mph - N/A   Overcast
12:35 AM 46.4 °F 40.7 °F 41.0 °F 81% 29.83 in 10.0 mi WNW 12.7 mph - N/A   Overcast
12:55 AM 44.6 °F 38.4 °F 39.2 °F 81% 29.84 in 10.0 mi West 12.7 mph 16.1 mph N/A   Overcast
1:15 AM 44.6 °F 37.4 °F 39.2 °F 81% 29.85 in 10.0 mi West 16.1 mph 23.0 mph N/A   Overcast
1:35 AM 46.4 °F 39.8 °F 39.2 °F 76% 29.85 in 10.0 mi West 16.1 mph 26.5 mph N/A   Overcast
1:55 AM 46.4 °F 38.5 °F 37.4 °F 71% 29.86 in 10.0 mi WSW 21.9 mph 29.9 mph N/A   Overcast
2:15 AM 44.6 °F 36.4 °F 35.6 °F 71% 29.86 in 10.0 mi West 20.7 mph 27.6 mph N/A   Overcast
2:35 AM 42.8 °F 34.5 °F 33.8 °F 70% 29.87 in 10.0 mi WSW 18.4 mph 25.3 mph N/A   Overcast
2:55 AM 39.2 °F 31.6 °F 32.0 °F 75% 29.88 in 10.0 mi West 12.7 mph - N/A   Mostly Cloudy
3:15 AM 39.2 °F 33.6 °F 32.0 °F 75% 29.89 in 10.0 mi SW 8.1 mph - N/A   Mostly Cloudy
3:35 AM 37.4 °F 26.9 °F 28.4 °F 70% 29.89 in 10.0 mi WSW 20.7 mph 24.2 mph N/A   Mostly Cloudy
3:55 AM 37.4 °F 27.8 °F 28.4 °F 70% 29.89 in 10.0 mi WSW 17.3 mph - N/A   Mostly Cloudy
4:15 AM 37.4 °F 30.3 °F 28.4 °F 70% 29.89 in 10.0 mi SW 10.4 mph 20.7 mph N/A   Mostly Cloudy
4:35 AM 37.4 °F 30.3 °F 28.4 °F 70% 29.89 in 10.0 mi SW 10.4 mph 19.6 mph N/A   Mostly Cloudy
4:55 AM 37.4 °F 29.8 °F 28.4 °F 70% 29.89 in 10.0 mi SW 11.5 mph 19.6 mph N/A   Overcast
5:15 AM 37.4 °F 30.3 °F 28.4 °F 70% 29.89 in 10.0 mi SW 10.4 mph 16.1 mph N/A   Overcast
5:55 AM 37.4 °F 29.8 °F 28.4 °F 70% 29.91 in 10.0 mi SW 11.5 mph 17.3 mph N/A   Overcast
6:15 AM 37.4 °F 30.8 °F 28.4 °F 70% 29.91 in 10.0 mi SW 9.2 mph 16.1 mph N/A   Overcast
6:35 AM 37.4 °F 29.8 °F 28.4 °F 70% 29.91 in 10.0 mi SW 11.5 mph - N/A   Overcast
7:15 AM 37.4 °F 29.8 °F 30.2 °F 75% 29.91 in 10.0 mi SSW 11.5 mph - N/A   Overcast
7:35 AM 37.4 °F 30.8 °F 30.2 °F 75% 29.92 in 10.0 mi SW 9.2 mph - N/A   Mostly Cloudy
7:55 AM 37.4 °F 29.8 °F 30.2 °F 75% 29.92 in 10.0 mi SSW 11.5 mph - N/A   Overcast
8:15 AM 37.4 °F 30.3 °F 30.2 °F 75% 29.93 in 10.0 mi SW 10.4 mph 17.3 mph N/A   Overcast
8:35 AM 35.6 °F 27.5 °F 30.2 °F 81% 29.93 in 10.0 mi SSW 11.5 mph - N/A   Overcast
8:55 AM 37.4 °F 30.8 °F 30.2 °F 75% 29.93 in 10.0 mi SSW 9.2 mph - N/A   Overcast
9:35 AM 37.4 °F 29.8 °F 30.2 °F 75% 29.93 in 10.0 mi SW 11.5 mph - N/A   Overcast
9:55 AM 37.4 °F 28.9 °F 30.2 °F 75% 29.92 in 10.0 mi SW 13.8 mph 18.4 mph N/A   Overcast
10:15 AM 37.4 °F 29.8 °F 32.0 °F 81% 29.92 in 10.0 mi SSW 11.5 mph - N/A   Overcast
10:35 AM 37.4 °F 30.3 °F 32.0 °F 81% 29.92 in 10.0 mi SW 10.4 mph - N/A   Overcast
10:55 AM 39.2 °F 31.2 °F 30.2 °F 70% 29.91 in 10.0 mi SW 13.8 mph 19.6 mph N/A   Overcast
11:15 AM 39.2 °F 31.6 °F 30.2 °F 70% 29.91 in 10.0 mi SW 12.7 mph 20.7 mph N/A   Overcast
11:35 AM 39.2 °F 30.8 °F 30.2 °F 70% 29.90 in 10.0 mi SW 15.0 mph 19.6 mph N/A   Overcast
11:55 AM 39.2 °F 32.0 °F 30.2 °F 70% 29.89 in 10.0 mi SW 11.5 mph - N/A   Overcast
12:15 PM 39.2 °F 32.0 °F 30.2 °F 70% 29.88 in 10.0 mi SW 11.5 mph - N/A   Overcast
12:35 PM 39.2 °F 33.6 °F 30.2 °F 70% 29.87 in 10.0 mi SW 8.1 mph - N/A   Overcast
12:55 PM 39.2 °F 33.6 °F 30.2 °F 70% 29.87 in 10.0 mi SW 8.1 mph - N/A   Overcast
1:15 PM 39.2 °F 32.0 °F 28.4 °F 65% 29.86 in 10.0 mi SW 11.5 mph - N/A   Overcast
1:35 PM 39.2 °F 32.5 °F 28.4 °F 65% 29.85 in 10.0 mi SW 10.4 mph 17.3 mph N/A   Overcast
1:55 PM 41.0 °F 35.2 °F 28.4 °F 61% 29.84 in 10.0 mi SW 9.2 mph - N/A   Overcast
2:15 PM 41.0 °F 34.3 °F 28.4 °F 61% 29.84 in 10.0 mi WSW 11.5 mph - N/A   Overcast
2:35 PM 41.0 °F 34.3 °F 28.4 °F 61% 29.84 in 10.0 mi SW 11.5 mph - N/A   Overcast
2:55 PM 41.0 °F 34.7 °F 28.4 °F 61% 29.84 in 10.0 mi WSW 10.4 mph - N/A   Overcast
3:15 PM 41.0 °F 33.1 °F 28.4 °F 61% 29.83 in 10.0 mi WSW 15.0 mph 19.6 mph N/A   Overcast
3:35 PM 41.0 °F 34.3 °F 26.6 °F 57% 29.83 in 10.0 mi WSW 11.5 mph - N/A   Overcast
3:55 PM 41.0 °F 36.4 °F 26.6 °F 57% 29.83 in 10.0 mi WSW 6.9 mph - N/A   Mostly Cloudy
4:15 PM 41.0 °F 36.4 °F 26.6 °F 57% 29.83 in 10.0 mi WSW 6.9 mph - N/A   Clear
4:35 PM 39.2 °F 33.6 °F 24.8 °F 56% 29.82 in 10.0 mi WSW 8.1 mph - N/A   Clear
4:55 PM 37.4 °F 31.4 °F 24.8 °F 60% 29.82 in 10.0 mi WSW 8.1 mph - N/A   Scattered Clouds
5:15 PM 39.2 °F 35.0 °F 24.8 °F 56% 29.82 in 10.0 mi WSW 5.8 mph - N/A   Overcast
5:35 PM 39.2 °F 35.9 °F 24.8 °F 56% 29.82 in 10.0 mi SW 4.6 mph - N/A   Overcast
5:55 PM 39.2 °F 33.0 °F 26.6 °F 61% 29.82 in 10.0 mi West 9.2 mph - N/A   Overcast
6:15 PM 37.4 °F 30.8 °F 28.4 °F 70% 29.82 in 10.0 mi WNW 9.2 mph - N/A   Overcast
6:35 PM 37.4 °F 29.8 °F 30.2 °F 75% 29.83 in 10.0 mi West 11.5 mph - N/A   Overcast
6:55 PM 35.6 °F 29.2 °F 30.2 °F 81% 29.83 in 10.0 mi WSW 8.1 mph - N/A   Overcast
7:15 PM 35.6 °F 28.0 °F 30.2 °F 81% 29.82 in 10.0 mi WSW 10.4 mph 17.3 mph N/A   Overcast
7:35 PM 35.6 °F 29.2 °F 30.2 °F 81% 29.81 in 10.0 mi WSW 8.1 mph - N/A   Mostly Cloudy
7:55 PM 35.6 °F 29.9 °F 30.2 °F 81% 29.81 in 10.0 mi SW 6.9 mph - N/A   Mostly Cloudy
8:15 PM 35.6 °F 30.7 °F 30.2 °F 81% 29.80 in 10.0 mi SSW 5.8 mph - N/A   Mostly Cloudy
8:35 PM 33.8 °F 27.7 °F 30.2 °F 87% 29.80 in 10.0 mi SSW 6.9 mph - N/A   Partly Cloudy
8:55 PM 33.8 °F 27.0 °F 28.4 °F 81% 29.80 in 10.0 mi SW 8.1 mph - N/A   Clear
9:15 PM 33.8 °F 26.4 °F 28.4 °F 81% 29.80 in 10.0 mi SW 9.2 mph - N/A   Clear
9:35 PM 33.8 °F 26.4 °F 26.6 °F 75% 29.80 in 10.0 mi SW 9.2 mph - N/A   Partly Cloudy
9:55 PM 33.8 °F 26.4 °F 26.6 °F 75% 29.79 in 10.0 mi SW 9.2 mph - N/A   Clear
10:15 PM 32.0 °F 24.2 °F 24.8 °F 75% 29.78 in 10.0 mi SW 9.2 mph - N/A   Clear
10:35 PM 32.0 °F 23.6 °F 24.8 °F 75% 29.78 in 10.0 mi SW 10.4 mph - N/A   Clear
10:55 PM 30.2 °F 20.8 °F 24.8 °F 80% 29.78 in 10.0 mi WSW 11.5 mph - N/A   Scattered Clouds
11:15 PM 33.8 °F 25.8 °F 23.0 °F 65% 29.78 in 10.0 mi WSW 10.4 mph - N/A   Overcast
11:35 PM 32.0 °F 23.0 °F 24.8 °F 75% 29.77 in 10.0 mi West 11.5 mph - N/A   Overcast
11:55 PM 30.2 °F 20.2 °F 26.6 °F 86% 29.77 in 5.0 mi WSW 12.7 mph - N/A   Mostly Cloudy